Regional Weather Roundup
Issued by NWS Sterling, VA

Home | Current Version | Previous Version | Text Only | Print | Product List | Glossary Off
Versions: 1 2 3 4 5 6 7 8 9 10 11 12 13 14 15 16 17 18 19 20 21 22 23 24 25 26 27 28 29 30 31 32 33 34 35 36 37 38 39 40 41 42 43 44 45 46

000
ASUS41 KLWX 242310
RWRLWX

REGIONAL WEATHER ROUNDUP
NATIONAL WEATHER SERVICE BALTIMORE MD/WASHINGTON DC
600 PM EST WED DEC 24 2014

Note: "FAIR" indicates few or no clouds below 12,000 feet
with no significant weather and/or obstructions to visibility.
 TC=TEMPERATURE CELSIUS

 * =Non NWS site. Station does not report precipitation (e.g. rain,
    snow, etc.), thunder, or fog.

DCZ001-MDZ009-015-VAZ040>042-051-053>054-250000-
WASHINGTON METRO

CITY           SKY/WX    TMP DP  RH WIND       PRES   REMARKS
WASHINGTON NAT CLOUDY    52  48  86 S7        29.64R
DULLES         FOG       49  49 100 S5        29.61F VSB 1/4
FT BELVOIR     CLOUDY    48  48 100 SE5       29.63F FOG
QUANTICO       FOG       48  46  93 CALM      29.65R VSB 3/4
COLLEGE PARK*  CLOUDY    52  52 100 SW3       29.63S
LEESBURG*      FOG       48  48 100 CALM      29.62S VSB 1/2
MANASSAS*      CLOUDY    52  50  93 S5        29.62
GAITHERSBURG*  CLOUDY    50  48  93 S3        29.65S

$$

MDZ006>007-011-014-250000-
BALTIMORE METRO

CITY           SKY/WX    TMP DP  RH WIND       PRES   REMARKS
BWI AIRPORT    CLOUDY    52  51  97 SW3       29.63S FOG
MD SCIENCE CTR   N/A     49  49 100 MISG      29.63F
MARTIN STATE   FOG       48  48 100 SE5       29.63F VSB 1/2
ANNAPOLIS      CLOUDY    49  47  93 SE6       29.62F FOG
FORT MEADE*    CLOUDY    50  50 100 SW3       29.65R

$$

MDZ012-015-019>023-250000-
MARYLAND EASTERN SHORE

CITY           SKY/WX    TMP DP  RH WIND       PRES   REMARKS
OCEAN CITY     CLOUDY    56  55  97 SW9G18    29.67F
SALISBURY      CLOUDY    67  63  87 S10       29.65F
BAY BRIDGE AP*   N/A     54  54 100 S6        29.64R
CAMBRIDGE*     CLOUDY    59  55  88 SE5       29.63F VSB 1/2
EASTON*        CLOUDY    59  59 100 SW6       29.68F

$$

MDZ017>025-250000-
SOUTHERN MARYLAND

CITY           SKY/WX    TMP DP  RH WIND       PRES   REMARKS
PATUXENT RIVER FOG       56  55  97 W3        29.65R VSB 1/4
ST INIGOES     FOG       56  53  90 CALM      29.64R VSB 1/4
LEONARDTOWN*   CLOUDY    54  52  94 SW5       29.67R

$$

MDZ003>005-250000-
NORTH CENTRAL MARYLAND

CITY           SKY/WX    TMP DP  RH WIND       PRES   REMARKS
FREDERICK*     FOG       48  46  93 CALM      29.64F VSB 1/4
HAGERSTOWN APT FOG       47  46  97 CALM      29.58F VSB 1/4
WESTMINSTER*   CLOUDY    52  48  87 S8        29.60S FOG

$$

MDZ501>502-250000-
WESTERN MARYLAND

CITY           SKY/WX    TMP DP  RH WIND       PRES   REMARKS
OAKLAND*       CLOUDY    45 N/A N/A S14       29.50F
CUMBERLAND*    CLOUDY    41  41 100 SE3       29.60F VSB 1/4

$$

VAZ025>031-250000-
SHENANDOAH VALLEY

CITY           SKY/WX    TMP DP  RH WIND       PRES   REMARKS
WINCHESTER*    FOG       45  41  87 CALM      29.58F VSB 1/4
FRONT ROYAL*   FAIR      43  43 100 CALM      29.58S
LURAY*         CLOUDY    48  48 100 CALM      29.59S
NEW MARKET*    CLOUDY    46  45  98 CALM      29.58F
STAUNTON*      CLOUDY    54  51  92 CALM      29.60F
WAYNESBORO*    CLOUDY    58  56  92 S12       29.58F

$$

WVZ021-048>050-054>055-250000-
EASTERN WEST VIRGINIA PANHANDLE

CITY           SKY/WX    TMP DP  RH WIND       PRES   REMARKS
MARTINSBURG    FOG       47  44  90 CALM      29.59F VSB 1/2
PETERSBURG*    CLOUDY    41  41 100 CALM      29.57F

$$

VAZ036>039-050-250000-
CENTRAL FOOTHILLS

CITY           SKY/WX    TMP DP  RH WIND       PRES   REMARKS
CHARLOTTESVILL FOG       50  49  96 S7        29.61F VSB 3/4
CULPEPER*      CLOUDY    52  52 100 CALM      29.63R
ORANGE*        CLOUDY    52  50  93 CALM      29.64R
GORDONSVILLE*  CLOUDY    49  49  99 S5        29.62S
WARRENTON*     CLOUDY    52  52 100 S6        29.62R

$$

VAZ055>057-250000-
NORTH AND CENTRAL PIEDMONT

CITY           SKY/WX    TMP DP  RH WIND       PRES   REMARKS
FREDERICKSBRG* CLOUDY    53  53 100 CALM      29.63S
STAFFORD*      CLOUDY    51  32  48 CALM      29.67F

$$

NCZ024-NYZ072-PAZ021-071-VAZ022-071-250000-
OTHER REGIONAL OBSERVATIONS

CITY           SKY/WX    TMP DP  RH WIND       PRES   REMARKS
NEW YORK CITY  CLOUDY    49  48  97 SE6       29.67F FOG
PHILADELPHIA   CLOUDY    62  59  90 SW9       29.63F
PITTSBURGH     CLOUDY    56  52  86 SE6       29.39F
ROANOKE        CLOUDY    48  47  96 SE9       29.65F FOG
RICHMOND       LGT RAIN  56  54  93 S5        29.64F VSB 1/4
RALEIGH        LGT RAIN  66  62  87 S12       29.69S

$$

ANZ530>537-250000-
MARINE OBSERVATIONS

STATION/POSITION TIME  TEMP    WIND        PRES
                       AIR SEA DIR/SP/G
                 (UTC) (F)     (DEG/KT/KT) (MB)
THOMAS PT LIGHT  2300   48 42  190/  8/  8 1005.1R
BALT KEY BRIDGE  2300   49     120/  6/  7 1002.3F
COVE POINT       2300   54     260/  4/  5 1004.2R
LEWISETTA        2300   52 43  360/  4/  5 1003.8S
SOLOMONS ISLAND  2300      43                N/A
PINEY POINT      2300          350/  4/  4   N/A

$$



USA.gov is the U.S. government's official web portal to all federal, state and local government web resources and services.